Home > Time Zones > World Clock > Weather > France > Caen > Past weeks

Flag for France Weather past 2 weeks in Caen, France

Now
66 °F

Fog.


Feels Like: 66 °F
Forecast: 56 / 65 °F
Wind: 5 mph from Northeast

Location: Caen Airport

Current Time: Aug 31, 2015 at 3:33:15 AM

Latest Report: Aug 31, 2015 at 2:30 AM


Visibility: 3 mi

Pressure: 29.92 "Hg

Humidity: 94%

Dew point: 64 °F

Location of CaenLocation

Historic Weather in Caen — Graph

°F

Caen temperature yesterday

Maximum temperature yesterday: 75 °F (at 2:00 PM)
Minimum temperature yesterday: 63 °F (at 3:30 AM)
Average temperature yesterday: 66 °F

Past Weeks' High & Low Weather Summary

 TemperatureHumidityPressure
High88 °F (Aug 22, 5:30 PM)100% (Aug 17, 1:30 AM)30.18 "Hg (Aug 17, 1:30 AM)
Low48 °F (Aug 16, 5:30 AM)38% (Aug 22, 5:30 PM)29.33 "Hg (Aug 24, 10:30 AM)
Average63 °F83%29.94 "Hg
* Reported Aug 16 2:00 AM — Aug 31 2:30 AM, Caen, Weather by CustomWeather, © 2015

Note: Actual official high and low records may vary slightly from our data, if they occured in-between our weather recording intervals... More about our weather records

Advertising

Caen weather history for previous 24 hours

 ConditionsComfort  
Time TempWeatherWind HumidityBarometerVisibility
2:30 AM
Mon, Aug 31
66 °FFog.5 mph94%29.92 "Hg3 mi
2:00 AM66 °FMostly cloudy.2 mph94%29.92 "Hg4 mi
1:30 AM66 °FLow clouds.2 mph94%29.92 "Hg4 mi
1:00 AM66 °FFog.5 mph100%29.92 "Hg3 mi
12:30 AM66 °FFog.8 mph94%29.92 "Hg2 mi
12:00 AM64 °FFog.6 mph100%29.92 "Hg3 mi
11:30 PM
Sun, Aug 30
64 °FFog.5 mph100%29.95 "Hg3 mi
11:00 PM64 °FFog.2 mph100%29.95 "Hg3 mi
10:30 PM66 °FFog.10 mph94%29.98 "Hg2 mi
10:00 PM66 °FFog.3 mph94%29.98 "Hg2 mi
9:30 PM66 °FFog.6 mph94%29.95 "Hg2 mi
9:00 PM66 °FFog.6 mph94%29.98 "Hg2 mi
8:30 PM66 °FFog.7 mph94%29.95 "Hg2 mi
8:00 PM66 °FLight rain. Fog.6 mph94%29.98 "Hg3 mi
7:30 PM66 °FMostly cloudy.7 mph94%29.98 "Hg4 mi
7:00 PM68 °FBroken clouds.7 mph88%29.98 "Hg6 mi
6:30 PM68 °FPartly sunny.8 mph88%29.98 "HgN/A
6:00 PM70 °FScattered clouds.8 mph83%29.98 "HgN/A
5:30 PM70 °FScattered clouds.8 mph83%29.98 "HgN/A
5:00 PM68 °FLow clouds.7 mph94%29.98 "Hg5 mi
4:30 PM70 °FPartly sunny.7 mph88%29.98 "Hg4 mi
4:00 PM70 °FPartly sunny.7 mph88%29.98 "Hg5 mi
3:30 PM72 °FPassing clouds.8 mph83%29.98 "Hg5 mi
3:00 PM72 °FPassing clouds.7 mph83%29.98 "Hg5 mi
2:30 PM73 °FScattered clouds.6 mph83%29.98 "Hg5 mi
2:00 PM75 °FScattered clouds.6 mph78%29.98 "Hg4 mi
1:30 PM73 °FPartly sunny.2 mph78%29.98 "HgN/A
1:00 PM70 °FPartly sunny.No wind83%30.01 "Hg6 mi
12:30 PM68 °FLow clouds.1 mph88%30.01 "Hg4 mi
12:00 PM66 °FLow clouds.1 mph94%30.01 "Hg4 mi
11:30 AM66 °FFog.2 mph94%30.01 "Hg2 mi
11:00 AM66 °FFog.No wind94%30.01 "Hg1 mi
10:30 AM64 °FFog.2 mph100%30.01 "Hg2 mi
10:00 AM64 °FFog.No wind100%30.01 "Hg1 mi
9:30 AM64 °FFog.3 mph100%30.01 "Hg1 mi
9:00 AM64 °FFog.2 mph100%30.01 "Hg1 mi
8:30 AM64 °FFog.3 mph100%30.01 "Hg1 mi
8:00 AM63 °FFog.6 mph100%30.01 "Hg1 mi
7:30 AM63 °FFog.5 mph100%30.01 "Hg1 mi
7:00 AM63 °FFog.5 mph100%30.01 "Hg1 mi
5:30 AM63 °FFog.5 mph100%30.01 "Hg1 mi
5:00 AM63 °FFog.6 mph100%30.01 "Hg2 mi
4:30 AM63 °FFog.6 mph100%30.01 "Hg3 mi
4:00 AM63 °FLow clouds.8 mph100%30.01 "Hg4 mi
3:30 AM63 °FFog.6 mph100%30.01 "Hg3 mi
3:00 AM64 °FLow clouds.6 mph94%30.01 "Hg4 mi
Weather by CustomWeather, © 2015

See weather overviewHow to use our weather pages